Location: ?????
(33.6267°N, 35.4675°E)
Time: 05:08:05
(UTC+00:00)

Cosmos 2082 - Pass Details

Date: 12 November 2019
Orbit: 836 x 854 km, 71.0° (Epoch: 07 December)

Event Time Altitude Azimuth Distance (km) Brightness Sun altitude
Rises 16:26:14 0° 345° (NNW) 3,389 6.9 -22.8°
Reaches altitude 10° 16:28:46 10° 351° (N) 2,451 6.1 -23.3°
Enters shadow 16:33:00 43° 28° (NNE) 1,162 4.1 -24.2°
